Regional Weather Roundup
Issued by NWS

Home | Current Version | Previous Version | Text Only | Print | Product List | Glossary Off
Versions: 1 2 3 4 5 6 7 8 9 10 11 12 13 14 15 16 17 18 19 20 21 22 23 24 25 26 27 28 29 30 31 32 33 34 35 36 37 38 39 40 41 42 43 44 45 46 47 48 49 50

000
ASUS43 KMKX 220100
RWRWI

WISCONSIN REGIONAL WEATHER ROUNDUP
NATIONAL WEATHER SERVICE MILWAUKEE/SULLIVAN WI
800 PM CDT THU AUG 21 2014

NOTE: "FAIR" INDICATES FEW OR NO CLOUDS BELOW 12,000 FEET WITH NO
SIGNIFICANT WEATHER AND/OR OBSTRUCTIONS TO VISIBILITY.

WIZ001-002-006>008-014>016-023>028-220200-
NORTHWEST WISCONSIN

CITY           SKY/WX    TMP DP  RH WIND       PRES   REMARKS
SUPERIOR ARPT  CLOUDY    61  60  98 E14       29.89S
ASHLAND        CLOUDY    65  62  90 NE7       29.89S
HAYWARD        CLOUDY    71  69  93 VRB5      29.88S
SIREN          CLOUDY    73  70  91 E3        29.85S
RICE LAKE      CLOUDY    72  69  93 CALM      29.87S
LADYSMITH      CLOUDY    71  67  88 E8        29.90F
EAU CLAIRE     CLOUDY    77  72  84 S10       29.84R
MENOMONIE      MOCLDY    76  71  85 SE3       29.84R
NEW RICHMOND   PTCLDY    74  72  95 E3        29.84R
OSCEOLA        MOCLDY    74  73  98 E6        29.85R
$$

WIZ003>005-009-010-017-018-220200-
NORTH CENTRAL WISCONSIN

CITY           SKY/WX    TMP DP  RH WIND       PRES   REMARKS
WOODRUFF       CLOUDY    69  65  85 SE7       29.94S
RHINELANDER    CLOUDY    65  63  93 SE8       29.96R
EAGLE RIVER    CLOUDY    65  64  93 SE5       29.96R
LAND O LAKES   CLOUDY    67  63  89 S7        29.97R
PHILLIPS       CLOUDY    67  65  94 SE8       29.92S
TOMAHAWK       CLOUDY    66  63  92 E3        29.94S FOG
MEDFORD        CLOUDY    67  66  96 E6        29.92S FOG
MERRILL        CLOUDY    67  66  99 SE6       29.93S FOG
$$

WIZ029-030-035-036-043>047-220200-
CENTRAL WISCONSIN

CITY           SKY/WX    TMP DP  RH WIND       PRES   REMARKS
WAUSAU         CLOUDY    67  66  97 E8        29.92R FOG
MOSINEE        CLOUDY    66  66 100 E6        29.94R FOG
MARSHFIELD     CLOUDY    74  70  87 SE9       29.90S
STEVENS POINT  CLOUDY    69  67  94 E6        29.93R
WAUPACA        CLOUDY    73  69  87 E3        29.92R
WAUTOMA        NOT AVBL
WISC RAPIDS    CLOUDY    74  70  87 SE3       29.93R
CAMP DOUGLAS   NOT AVBL
$$

WIZ011>013-019>022-031-037>040-048>050-220200-
NORTHEAST WISCONSIN

CITY           SKY/WX    TMP DP  RH WIND       PRES   REMARKS
ANTIGO         CLOUDY    63  63  99 E7        29.97R FOG
STURGEON BAY   CLOUDY    64  61  88 CALM      29.96R
GREEN BAY      CLOUDY    68  65  90 E8        29.93S
MANITOWOC      NOT AVBL
APPLETON       CLOUDY    70  66  88 VRB5        N/A
CLINTONVILLE   CLOUDY    68  64  88 E5        29.93R
OSHKOSH        CLOUDY    72  69  90 E6        29.92R
$$

WIZ032>034-041-042-053>061-220200-
SOUTHWEST WISCONSIN

CITY           SKY/WX    TMP DP  RH WIND       PRES   REMARKS
LA CROSSE      CLEAR     80  72  76 S14       29.86R HX  84
SPARTA         MOCLDY    77  70  77 CALM      29.89S
VIROQUA        FAIR      76  73  93 S6        29.91S
BOSCOBEL       PTCLDY    78  72  81 CALM      29.90R HX  80
PRAIRIE DU CHI MOCLDY    77  71  80 CALM      29.89S
PLATTEVILLE    FAIR      75  73  92 W5        29.92R
$$

WIZ056-057-062-063-064-067-068-220200-
SOUTH CENTRAL WISCONSIN

CITY           SKY/WX    TMP DP  RH WIND       PRES   REMARKS
BARABOO/DELLS  PTCLDY    74  70  86 CALM      29.91R
LONE ROCK      NOT AVBL
WATERTOWN      CLOUDY    74  73  96 CALM      29.91S
MADISON        MOCLDY    76  72  87 S5        29.91R
MIDDLETON      MOCLDY    78  75  91 CALM      29.92R HX  80
MONROE         MOCLDY    73  72  94 CALM      29.91R
JANESVILLE     CLEAR     77  73  88 CALM      29.90S
$$

WIZ051-052-058>065-066-070>072-220200-
SOUTHEAST WISCONSIN

CITY           SKY/WX    TMP DP  RH WIND       PRES   REMARKS
MILWAUKEE      MOCLDY    73  69  87 SE6       29.93R
WAUKESHA       CLOUDY    73  70  88 E6        29.94R
MILWAUKEE/TIMM CLOUDY    72  66  83 E5        29.92S
RACINE         PTCLDY    72  69  90 S7        29.94R
BURLINGTON     PTCLDY    72  70  95 SE3       29.92S
KENOSHA        PTCLDY    73  71  93 SE5       29.93R FOG
FOND DU LAC    CLOUDY    74  69  85 S5        29.92R
SHEBOYGAN      CLOUDY    68  67  96 E6        29.93S FOG
WEST BEND      MOCLDY    70  66  88 SE6       29.92S
JUNEAU         CLOUDY    74  46  36 SE3       29.93R
$$

LSZ147-162-220200-
LAKE SUPERIOR

STATION/POSITION TIME  TEMP    WIND        PRES    WAVE
                       AIR SEA DIR/SP/G            HT/PER
                 (UTC) (F)     (DEG/KT/KT) (MB)    (FT/S)
W MID LAKE BUOY  2350   58 59   60/ 14/ 16 1013.0R   2/ 4
DEVILS ISLAND    0000   61      70/ 13/ 16 1012.6F
PORT WING        0000   63      40/ 17/ 20 1012.2F
SAXON HARBOR     0040   67        CALM     1012.2S
$$

LMZ867-665-643>646-220200-
LAKE MICHIGAN

STATION/POSITION TIME  TEMP    WIND        PRES    WAVE
                       AIR SEA DIR/SP/G            HT/PER
                 (UTC) (F)     (DEG/KT/KT) (MB)    (FT/S)
N MID LAKE BUOY  2350   65 65   60/  8/  8 1013.5F   0
NORTHPORT PIER   0000   66     140/  2/  3 1014.2F
SISTER BAY       0011   67     140/  3/  7   N/A
ALGOMA LAKESHORE 0008           70/  7/  9   N/A
KEWAUNEE LAKESHO 0000   65      30/  2/  4 1013.2F
SHEBOYGAN LAKESH 0000   67 65  100/  5/  5 1013.7F
ATWATER BUOY     0000   69      40/  2/  4 1014.3S
MILWAUKEE LAKESH 0000   71      40/  2/  3   N/A
S MID LAKE BUOY  2350   70 69  140/  4/  6 1013.3S   1
KENOSHA   LAKESH 0000   71     160/  5/  7 1012.5S
$$

TC  - TEMPERATURE IN CELSIUS
VSB - VISIBILITY IN STATUTE MILES
WCI - WIND CHILL INDEX
HX  - HEAT INDEX




USA.gov is the U.S. government's official web portal to all federal, state and local government web resources and services.